Regional Weather Roundup
Issued by NWS

Home | Current Version | Previous Version | Text Only | Print | Product List | Glossary On
Versions: 1 2 3 4 5 6 7 8 9 10 11 12 13 14 15 16 17 18 19 20 21 22 23 24 25 26 27 28 29 30 31 32 33 34 35 36 37 38 39 40 41 42 43 44 45 46 47 48 49 50
468
ASUS44 KJAN 011103
RWRMS

MISSISSIPPI HOURLY WEATHER ROUNDUP
NATIONAL WEATHER SERVICE JACKSON MS
600 AM CDT MON SEP 01 2014

NOTE: "FAIR: INDICATES FEW OR NO CLOUDS BELOW 12,000 FEET WITH NO
SIGNIFICANT WEATHER AND/OR OBSTRUCTIONS TO VISIBILITY.

MSZ001>002-007>008-010>013-018>021-025>028-034>036-011200-
NORTHWEST MISSISSIPPI

CITY           SKY/WX    TMP DP  RH WIND       PRES   REMARKS
CLARKSDALE     FAIR      75  75 100 CALM      30.02S
CLEVELAND      FAIR      75  75 100 S6        30.01R
GREENWOOD      PTCLDY    72  70  93 CALM      30.04R FOG
GREENVILLE     PTCLDY    76  74  93 S7        30.01S
GRENADA        FAIR      72  70  94 CALM      30.05R
OLIVE BRANCH   CLEAR     73 N/A N/A S8        30.02R
OXFORD         FAIR      73  72  94 S5        30.06R
TUNICA         CLOUDY    73  73 100 S7        30.02R
$$

MSZ003>006-009-014>017-022>024-029>033-037>039-011200-
NORTHEAST MISSISSIPPI

CITY           SKY/WX    TMP DP  RH WIND       PRES   REMARKS
BELMONT        FAIR      74  71  91 S5        30.07S
COLUMBUS AFB   PTCLDY    71  71 100 N1        30.07R
CORINTH        FAIR      73  72  94 CALM      30.05R FOG
GOLDN TRIANGLE PTCLDY    72  68  88 S5        30.06S
STARKVILLE       N/A     70  68  94 CALM      30.06R FOG
TUPELO         CLEAR     72  70  93 S3        30.06R FOG
$$

MSZ040-058-011200-
CENTRAL MISSISSIPPI

CITY           SKY/WX    TMP DP  RH WIND       PRES   REMARKS
JACKSON INTL   MOCLDY    75  73  93 SE3       30.04S
JACKSON HAWKNS MOCLDY    76  73  91 S5        30.04S
MERIDIAN KEY   NOT AVBL
MERIDIAN NAS   MOCLDY    72  70  93 CALM      30.07S
RAYMOND        FAIR      75  70  83 SE3       30.04S HAZE
VICKSBURG      MOCLDY    76  74  93 S8        30.02S
$$

MSZ059>079-011200-
SOUTH MISSISSIPPI

CITY           SKY/WX    TMP DP  RH WIND       PRES   REMARKS
BROOKHAVEN     FOG       73  73 100 CALM      30.06S VSB<1/4
HATTIESBURG    CLEAR     72  70  93 CALM      30.06S
MCCOMB         MOCLDY    74  72  93 NE3       30.05R
NATCHEZ        PTCLDY    75  73  94 SE6       30.03S
PINE BELT      CLOUDY    72  68  88 N3        30.07R VSB 1/2
$$

MSZ080>082-011200-
COASTAL MISSISSIPPI

CITY           SKY/WX    TMP DP  RH WIND       PRES   REMARKS
BILOXI         PTCLDY    82  75  78 SE5       30.04R
PASCAGOULA     PTCLDY    72  72 100 CALM      30.04R FOG
GULFPORT       PTCLDY    79  75  87 SE3       30.03R
$$



USA.gov is the U.S. government's official web portal to all federal, state and local government web resources and services.